TimeEST,TemperatureF,Dew PointF,Humidity,Sea Level PressureIn,VisibilityMPH,Wind Direction,Wind SpeedMPH,Gust SpeedMPH,PrecipitationIn,Events,Conditions,WindDirDegrees,DateUTC
12:22 AM,41.0,35.6,81,30.04,10.0,NNW,4.6,-,N/A,Rain,Light Rain,330,2011-12-23 05:22:00
12:55 AM,39.9,36.0,86,30.04,5.0,Calm,Calm,-,0.00,Rain,Light Rain,0,2011-12-23 05:55:00
1:55 AM,39.6,38.3,95,30.00,4.0,Calm,Calm,-,0.06,Rain,Light Rain,0,2011-12-23 06:55:00
2:39 AM,39.2,39.2,100,29.98,4.0,NE,4.6,-,N/A,Rain,Rain,50,2011-12-23 07:39:00
2:55 AM,39.7,39.0,97,29.98,4.0,ENE,3.5,-,0.13,Rain,Rain,60,2011-12-23 07:55:00
3:55 AM,39.2,38.5,97,29.96,3.0,North,3.5,-,0.14,Rain,Rain,10,2011-12-23 08:55:00
4:14 AM,39.2,37.4,93,29.95,4.0,North,4.6,-,N/A,Rain,Rain,360,2011-12-23 09:14:00
4:55 AM,37.4,36.3,96,29.93,3.0,NNW,8.1,-,0.14,Rain,Rain,340,2011-12-23 09:55:00
5:11 AM,37.4,35.6,93,29.94,2.0,NNW,9.2,-,N/A,Rain,Rain,340,2011-12-23 10:11:00
5:55 AM,36.0,35.2,97,29.94,2.0,North,3.5,-,0.17,Rain,Rain,10,2011-12-23 10:55:00
6:09 AM,35.6,35.6,100,29.94,3.0,North,3.5,-,N/A,Rain-Snow,Light Rain,10,2011-12-23 11:09:00
6:45 AM,35.6,35.6,100,29.94,2.0,NNW,6.9,-,N/A,Rain-Snow,Light Rain,330,2011-12-23 11:45:00
6:55 AM,34.9,34.0,97,29.92,2.0,North,9.2,-,0.05,Rain-Snow,Light Rain,350,2011-12-23 11:55:00
7:19 AM,33.8,33.8,100,29.91,3.0,North,8.1,-,N/A,Rain,Light Rain,350,2011-12-23 12:19:00
7:55 AM,34.2,33.4,97,29.91,4.0,North,9.2,-,0.00,Rain,Light Rain,350,2011-12-23 12:55:00
8:55 AM,34.5,33.8,97,29.91,3.0,NNW,10.4,-,0.02,Rain,Light Rain,340,2011-12-23 13:55:00
9:55 AM,35.2,34.3,97,29.92,10.0,North,9.2,-,0.00,,Overcast,350,2011-12-23 14:55:00
10:55 AM,36.7,35.8,97,29.91,10.0,NNW,9.2,-,N/A,,Overcast,340,2011-12-23 15:55:00
11:55 AM,36.7,35.8,97,29.89,10.0,NNW,10.4,-,N/A,,Overcast,330,2011-12-23 16:55:00
12:55 PM,37.2,35.6,94,29.91,10.0,NW,8.1,-,N/A,,Overcast,310,2011-12-23 17:55:00
1:55 PM,37.6,35.1,91,29.93,10.0,WNW,4.6,-,N/A,,Overcast,300,2011-12-23 18:55:00
2:55 PM,38.3,35.2,89,29.94,10.0,West,6.9,-,N/A,,Overcast,280,2011-12-23 19:55:00
3:15 PM,39.2,35.6,87,29.95,10.0,WSW,6.9,-,N/A,,Mostly Cloudy,250,2011-12-23 20:15:00
3:55 PM,37.8,34.3,87,29.96,10.0,WSW,6.9,-,N/A,,Scattered Clouds,250,2011-12-23 20:55:00
4:55 PM,36.1,33.8,91,29.99,10.0,West,9.2,-,N/A,,Partly Cloudy,270,2011-12-23 21:55:00
5:55 PM,37.0,29.1,73,30.01,10.0,WNW,11.5,-,N/A,,Partly Cloudy,300,2011-12-23 22:55:00
6:55 PM,35.4,28.2,75,30.06,10.0,NW,11.5,23.0,N/A,,Partly Cloudy,310,2011-12-23 23:55:00
7:55 PM,33.3,20.5,59,30.10,10.0,WNW,15.0,27.6,N/A,,Partly Cloudy,300,2011-12-24 00:55:00
8:55 PM,31.3,19.0,61,30.13,10.0,West,9.2,-,N/A,,Partly Cloudy,280,2011-12-24 01:55:00
9:55 PM,30.0,17.8,60,30.15,10.0,WNW,16.1,21.9,N/A,,Partly Cloudy,300,2011-12-24 02:55:00
10:55 PM,28.4,15.3,58,30.17,10.0,NW,10.4,-,N/A,,Partly Cloudy,310,2011-12-24 03:55:00
11:55 PM,27.0,14.2,59,30.17,10.0,WNW,13.8,-,N/A,,Partly Cloudy,300,2011-12-24 04:55:00